Regional Weather Roundup
Issued by NWS Albany, NY

Home | Current Version | Previous Version | Graphics & Text | Print | Product List | Glossary On
Versions: 1 2 3 4 5 6 7 8 9 10 11 12 13 14 15 16 17 18 19 20 21 22 23 24 25 26 27 28 29 30 31 32 33 34 35 36 37 38 39 40 41 42 43 44 45 46 47 48 49 50
000
ASUS41 KALY 221410
RWRALY

NEW YORK STATE HOURLY WEATHER ROUNDUP
NATIONAL WEATHER SERVICE ALBANY NY
1000 AM EDT SUN APR 22 2018

NOTE: "FAIR" INDICATES FEW OR NO CLOUDS BELOW 12,000 FEET WITH NO
SIGNIFICANT WEATHER AND/OR NO OBSTRUCTIONS TO VISIBILITY.

NYZ032-033-038>043-046>054-057>066-NYZ062>081-082-084-221500-
EAST


CITY           SKY/WX    TMP DP  RH WIND       PRES   REMARKS
ALBANY         FAIR      50  22  33 VRB3      30.42S
GLENS FALLS    FAIR      48  20  32 N6        30.41S
POUGHKEEPSIE   FAIR      50  25  37 CALM      30.41S
NEWBURGH       SUNNY     50  23  34 CALM      30.42S
MONTGOMERY     FAIR      54  24  31 VRB5      30.40S
WHITE PLAINS   FAIR      52  19  27 NW6       30.40S
ISLIP          FAIR      55  20  25 N9        30.40S
NEW YORK CITY  FAIR      54  23  30 NW8       30.41S
CENTRAL PARK   FAIR      54  20  26 VRB3      30.44S
$$

NYZ005>009-017-018-044>046-055-056-221500-
CENTRAL


CITY           SKY/WX    TMP DP  RH WIND       PRES   REMARKS
FULTON         FAIR      48  28  46 W5        30.44R
SYRACUSE       FAIR      48  26  42 W7        30.44S
ROME           FAIR      44  27  51 W6        30.45S
ELMIRA         FAIR      47  29  49 CALM      30.44F
BINGHAMTON     FAIR      46  22  38 W6        30.40S
MONTICELLO     FAIR      48  19  31 W3        30.42R
$$

NYZ026>034-041>043-087-221500-
NORTH


CITY           SKY/WX    TMP DP  RH WIND       PRES   REMARKS
WATERTOWN      FAIR      49  28  44 VRB3      30.44R
FORT DRUM      NOT AVBL
OGDENSBURG     FAIR      49  26  39 CALM      30.44R
MASSENA        FAIR      48  26  42 VRB3      30.45R
SARANAC LAKE   FAIR      43  15  32 VRB3      30.36S
PLATTSBURGH    FAIR      46  20  35 E12       30.41S
$$

NYZ001>004-010>016-019>021-085-221500-
WEST


CITY           SKY/WX    TMP DP  RH WIND       PRES   REMARKS
NIAGARA FALLS  FAIR      51  26  37 CALM      30.45S
BUFFALO        FAIR      49  25  39 CALM      30.45S
DUNKIRK        FAIR      51  32  48 N7        30.45S
JAMESTOWN      FAIR      47  25  42 VRB7      30.43S
WELLSVILLE     FAIR      49  22  34 SE5       30.43S
ROCHESTER      FAIR      50  29  44 VRB3      30.45S
PENN YAN       FAIR      49  22  34 SW5       30.44R
$$

             KEY
       WCI = WIND CHILL INDEX
       VSB = VISIBILITY
       HX  = HEAT INDEX
$$



USA.gov is the U.S. government's official web portal to all federal, state and local government web resources and services.